Tracking 28522 objects as of 28-Feb-2024
HD Live streaming from Space Station
objects crossing your sky now

NOAA 16 DEB

Track NOAA 16 DEB now!
10-day predictions


NORAD ID: 41138
Int'l Code: 2000-055BV
Perigee: 825.2 km
Apogee: 842.6 km
Inclination: 98.7 °
Period: 101.4 minutes
Semi major axis: 7204 km
RCS: Unknown
Launch date: September 21, 2000
Source: United States (US)
Launch site: AIR FORCE WESTERN TEST RANGE (AFWTR)

Note: This is SATELLITE DEBRIS
Your satellite tracking list
Your tracking list is empty




NASA's NSSDC Master Catalog

Two Line Element Set (TLE):
1 41138U 00055BV  24057.70378067  .00002905  00000-0  13963-2 0  9993
2 41138  98.7478 138.9728 0012034 299.1207  60.8764 14.19579206424544
Source of the keplerian elements: AFSPC